Home > Weather > Rio Grande > Past weeks

Flag for Brazil Past Weather in Rio Grande, Rio Grande do Sul, Brazil — Yesterday and Last 2 Weeks

Now
57 °F

Overcast.


Feels Like: 57 °F
Forecast: 51 / 61 °F
Wind: 3 mph from South

Location: Pelotas Airport

Current Time: May 24, 2016 at 2:50:56 PM

Latest Report: May 24, 2016 at 2:00 PM


Visibility: N/A

Pressure: 30.42 "Hg

Humidity: 88%

Dew Point: 54 °F

Location of Rio GrandeLocation

Past Weather in Rio Grande — Graph

°F

Rio Grande Temperature Yesterday

Maximum temperature yesterday: 61 °F (at 2:00 PM)
Minimum temperature yesterday: 48 °F (at 7:00 AM)
Average temperature yesterday: 54 °F

High & Low Weather Summary for the Past Weeks

 TemperatureHumidityPressure
High73 °F (May 10, 1:00 PM)100% (May 10, 1:00 AM)30.45 "Hg (May 10, 1:00 AM)
Low45 °F (May 19, 7:00 AM)51% (May 17, 3:00 PM)29.68 "Hg (May 15, 7:00 PM)
Average58 °F81%30.15 "Hg
* Reported May 9 1:00 PM — May 24 1:00 PM, Rio Grande, Weather by CustomWeather, © 2016

Note: Actual official high and low records may vary slightly from our data, if they occured in-between our weather recording intervals... More about our weather records

Advertising

Rio Grande Weather History for the Previous 24 Hours

Scroll right to see more
 ConditionsComfort  
Time TempWeatherWind HumidityBarometerVisibility
1:00 PM
Tue, May 24
59 °FOvercast.6 mph77%30.42 "HgN/A
12:00 PM59 °FOvercast.3 mph77%30.45 "HgN/A
11:00 AM57 °FBroken clouds.3 mph82%30.45 "HgN/A
10:00 AM55 °FPassing clouds.7 mph88%30.45 "HgN/A
9:00 AM50 °FSunny.3 mph94%30.45 "Hg10 mi
8:00 AM46 °FSunny.5 mph100%30.42 "Hg10 mi
7:00 AM46 °FSunny.6 mph93%30.42 "Hg10 mi
4:00 AM46 °FClear.6 mph93%30.39 "Hg5 mi
3:00 AM46 °FClear.3 mph93%30.39 "Hg5 mi
9:45 PM
Mon, May 23
48 °FClear.3 mph94%30.39 "Hg10 mi
9:00 PM50 °FClear.3 mph94%30.39 "Hg10 mi
8:00 PM52 °FClear.3 mph88%30.36 "Hg10 mi
7:00 PM52 °FPassing clouds.5 mph88%30.36 "HgN/A
6:00 PM54 °FPassing clouds.6 mph82%30.36 "HgN/A
5:00 PM57 °FPassing clouds.8 mph72%30.36 "HgN/A
4:00 PM59 °FScattered clouds.10 mph68%30.33 "HgN/A
3:00 PM57 °FPartly sunny.9 mph72%30.33 "HgN/A
2:00 PM61 °FPartly sunny.9 mph68%30.33 "HgN/A
Weather by CustomWeather, © 2016

See weather overviewHow to use our weather pages